www.pogodaiklimat.ru

Погода и климат >> Архив погоды >> Индия >> Гоа >> Панаджи


ПОГОДА в Панаджи

  • Прогноз погоды в Панаджи
  • Монитор погоды в Панаджи

АРХИВ ПОГОДЫ в Панаджи

Время (UTC), дата Ветер
(напр.,м/с)
 
Видим.   Явления Облачность Т
(С)
Тd
(С)
f
(%)
Тe
(С)
Тes
(С)
Комфортность P
(гПа)
Po
(гПа)
Тmin
(С)
Tmax
(С)
R
(мм)
R24
(мм)
S
(см)
21 16.01 В 2 4000 м ясно +21.6 +19.1 86 +27 +27 душно 1012.2 1012.0
00 17.01 СВ 1 4000 м ясно +20.6 +18.4 87 +26 +26 душно 1011.7 1012.0
03 17.01 В 1 4000 м мгла ясно +21.0 +17.1 78 +26 +29 душно 1013.8 1014.0 +19.4
06 17.01 В 2 4000 м мгла ясно +29.6 +16.1 44 +33 +47 душно 1013.9 1014.0
09 17.01 З 2 4000 м мгла ясно +32.6 +18.9 44 +38 +48 очень
душно
1010.3 1010.0
12 17.01 СЗ 2 4000 м мгла ясно +30.8 +18.8 49 +36 +37 очень
душно
1009.3 1009.0 +34.8
15 17.01 СЗ 1 4000 м ясно +26.4 +21.0 72 +33 +33 очень
душно
1011.1 1011.0
18 17.01 В 1 4000 м ясно +24.6 +21.9 85 +32 +32 очень
душно
1011.7 1012.0
21 17.01 СВ 2 4000 м ясно +22.4 +20.2 87 +29 +29 очень
душно
1010.8 1011.0
00 18.01 В 1 4000 м ясно +21.4 +19.5 89 +26 +26 душно 1010.9 1011.0
03 18.01 В 2 2000 м мгла ясно +21.0 +18.8 87 +26 +29 душно 1013.9 1014.0 +19.5 +34.8
06 18.01 В 2 4000 м мгла ясно +31.0 +15.6 39 +33 +48 душно 1013.9 1014.0
09 18.01 З 2 4000 м мгла ясно +34.0 +15.5 33 +36 +48 душно 1010.5 1011.0
12 18.01 З 1 4000 м мгла ясно +31.0 +17.6 45 +35 +36 очень
душно
1010.3 1010.0 +35.0
15 18.01 СВ 1 4000 м ясно +26.0 +20.2 70 +32 +32 очень
душно
1011.2 1011.0
18 18.01 В 2 4000 м ясно +24.0 +20.0 78 +29 +29 душно 1012.3 1012.0
00 19.01 СВ 1 4000 м ясно +21.4 +18.2 82 +26 +26 душно 1011.7 1012.0
03 19.01 В 1 2000 м мгла ясно +21.6 +16.3 72 +25 +28 комфорт 1014.3 1014.0 +19.7 +35.0
06 19.01 В 1 4000 м мгла ясно +31.4 +15.3 38 +34 +50 душно 1015.1 1015.0
09 19.01 З 2 4000 м мгла ясно +33.0 +17.5 40 +37 +48 очень
душно
1012.2 1012.0
12 19.01 З 2 4000 м мгла ясно +30.0 +20.7 57 +37 +38 очень
душно
1011.3 1011.0 +34.0
15 19.01 СВ 1 4000 м ясно +26.4 +23.5 84 +36 +36 очень
душно
1013.5 1014.0
18 19.01 СВ 1 4000 м ясно +24.4 +20.7 80 +30 +30 очень
душно
1014.4 1014.0
21 19.01 В 1 4000 м ясно +22.8 +19.7 83 +29 +29 очень
душно
1013.0 1013.0
00 20.01 В 1 4000 м ясно +21.2 +18.7 86 +26 +26 душно 1013.2 1013.0
03 20.01 В 1 2000 м мгла ясно +21.0 +18.1 84 +27 +30 душно 1015.8 1016.0 +19.5 +34.0
06 20.01 СВ 1 4000 м мгла ясно +30.0 +13.3 36 +31 +47 жарко 1015.5 1016.0
09 20.01 З 2 4000 м мгла ясно +34.2 +16.6 35 +37 +49 очень
душно
1011.6 1012.0
12 20.01 СЗ 1 4000 м мгла ясно +30.4 +17.6 46 +34 +35 очень
душно
1010.5 1011.0 +35.0
15 20.01 штиль 0 4000 м ясно +25.6 +20.1 72 +32 +32 очень
душно
1012.7 1013.0
18 20.01 В 1 4000 м ясно +24.0 +20.7 82 +30 +30 очень
душно
1013.9 1014.0
21 20.01 В 2 4000 м ясно +22.2 +20.4 90 +29 +29 очень
душно
1012.7 1013.0
00 21.01 В 3 4000 м ясно +20.6 +19.1 91 +25 +25 комфорт 1012.7 1013.0
03 21.01 СВ 1 2000 м мгла ясно +20.4 +18.2 87 +25 +28 комфорт 1014.3 1014.0 +19.0 +35.0
06 21.01 В 1 4000 м мгла ясно +29.6 +15.7 43 +32 +48 душно 1015.0 1015.0
09 21.01 З 2 4000 м мгла ясно +32.2 +16.0 38 +35 +47 очень
душно
1011.9 1012.0
12 21.01 З 1 4000 м мгла ясно +29.4 +20.0 57 +36 +36 очень
душно
1011.1 1011.0 +32.4
15 21.01 штиль 0 4000 м ясно +25.4 +21.5 79 +32 +32 очень
душно
1012.9 1013.0
18 21.01 штиль 0 4000 м ясно +24.0 +21.9 88 +31 +31 очень
душно
1013.3 1013.0
21 21.01 В 1 4000 м 6/4 600 м
[Sc diur, vesp Ci sp]
+22.6 +19.5 83 +29 +29 очень
душно
1012.2 1012.0
00 22.01 В 1 4000 м 5/0
[Ci sp]
+21.8 +19.6 87 +27 +27 душно 1012.5 1013.0
03 22.01 В 1 2000 м мгла ясно +22.0 +19.5 86 +28 +31 душно 1014.8 1015.0 +20.6 +32.4
06 22.01 В 1 4000 м мгла ясно +28.8 +21.0 63 +36 +52 опасность
солнечного
удара
1014.9 1015.0
09 22.01 В 1 4000 м мгла 8/3 600 м
[Sc diur, vesp Ac trans Ci sp]
+31.4 +19.2 48 +37 +43 очень
душно
1011.9 1012.0
12 22.01 В 1 4000 м мгла 8/4 600 м
[Sc diur, vesp Ac trans Ci sp]
+28.6 +18.7 55 +34 +34 очень
душно
1011.6 1012.0 +32.0
15 22.01 С 1 4000 м 4/1 600 м
[Sc Ac trans]
+25.8 +21.3 76 +33 +33 очень
душно
1013.5 1014.0
18 22.01 штиль 0 4000 м ясно +23.6 +20.9 85 +30 +30 очень
душно
1014.3 1014.0
21 22.01 СВ 1 4000 м ясно +22.0 +19.5 86 +28 +28 душно 1013.2 1013.0
00 23.01 СВ 2 4000 м ясно +20.6 +19.1 91 +26 +26 душно 1013.1 1013.0
03 23.01 В 1 2000 м мгла ясно +20.2 +18.6 91 +25 +28 комфорт 1013.9 1014.0 +19.0
06 23.01 СВ 2 4000 м мгла ясно +28.8 +17.6 51 +33 +47 очень
душно
1015.5 1016.0
09 23.01 З 2 2000 м мгла ясно +31.4 +15.3 38 +34 +45 душно 1012.1 1012.0
12 23.01 СЗ 3 4000 м мгла ясно +28.4 +17.7 52 +33 +33 очень
душно
1011.4 1011.0 +19.5 +31.8
15 23.01 С 2 4000 м ясно +25.0 +19.5 72 +30 +30 душно 1013.5 1014.0
18 23.01 С 2 4000 м ясно +23.6 +19.6 78 +29 +29 душно 1013.8 1014.0

 

Местоположение метеостанции Панаджи (Гоа, Индия): широта 15.48 долгота 73.82 высота над уровнем моря 60 м.

В архиве по умолчанию представлена погода в Панаджи за последнюю неделю. Архивные данные за месяц целиком и за предыдущие месяцы, начиная с января 2011 года, Вы можете получить, выбрав интересующий диапазон дат из раскрывающегося списка и нажав кнопку "Ввод!".


*Определитесь, кто Вы:
робот инопланетянин человек

Внимание! Время в таблицах - всемирное. Для получения местного времени необходимо прибавить поправку, которая равна 5.5 ч.

Смотрите также архив погоды в соседних городах и на ближайших метеорологических станциях:

Погода в Мормугао (Гоа, Индия) (8 км)
Погода в Венгерле (Махараштра, Индия) (48 км)
Погода в Карваре (Карнатака, Индия) (85 км)
Погода в Белгауме (Карнатака, Индия) (86 км)
Погода в Белгаум аэропорту (Карнатака, Индия) (95 км)
Погода в Дхарваде (Карнатака, Индия) (124 км)
Погода в Колхапуре (Махараштра, Индия) (143 км)
Погода в Хоннаваре (Карнатака, Индия) (150 км)
Погода в Сангли (Махараштра, Индия) (174 км)
Погода в Ширали (Карнатака, Индия) (174 км)

Пояснения к столбцам:

Ветер - указаны скорость ветра в м/с - средняя за 10 мин, порывы в срок и между сроками (в фигурных скобках) и направление, откуда дует ветер: С - северный, СВ - северо-восточный, В - восточный, ЮВ - юго-восточный, Ю - южный, ЮЗ - юго-западный, З - западный, СЗ - северо-западный.
Видимость - горизонтальная дальность видимости в метрах или километрах. При видимости от 1 до 10 км при отсутствии осадков обычно наблюдается дымка, при ухудшении видимости до 1 км и менее - туман. В сухую погоду видимость может ухудшаться дымом, пылью или мглою.
Явления - указаны атмосферные явления, наблюдавшиеся в срок или в последний час перед сроком; фигурными скобками обозначены явления, наблюдавшиеся между сроками (за 1-3 часа до срока); квадратными скобками обозначены град или гололедные отложения с указанием их диаметра в мм.
Облачность - указаны через наклонную черту общая и нижняя облачность в баллах и высота нижней границы облаков в метрах; квадратными скобками обозначены формы облаков: Ci - перистые, Cs - перисто-слоистые, Cc - перисто-кучевые, Ac - высококучевые, As - высокослоистые, Sc - слоисто-кучевые, Ns - слоисто-дождевые, Cu - кучевые, Cb - кучево-дождевые. Подробнее классификацию облаков см. в Атласе облаков (PDF).
T - Температура воздуха - температура, измеренная на высоте 2 м над землей.
Td - Температура точки росы - температура, при понижении до которой содержащийся в воздухе водяной пар достигнет насыщения.
f - Относительная влажность воздуха - влажноcть воздуха, измеренная на высоте 2 м над землей.
Te - Эффективная температура - температура, которую ощущает одетый по сезону человек в тени. Характеристика душности погоды. При расчете учитывается влияние влажности воздуха и скорости ветра на теплоощущения человека.
Tes - Эффективная температура на солнце - температура, которую ощущает человек, с поправкой на солнечный нагрев. Характеристика знойности погоды. Зависит от высоты солнца над горизонтом, облачности и скорости ветра. Ночью, в пасмурную погоду, а также при ветре 12 м/с и более поправка равна нулю.
P - Атмосферное давление - приведенное к уровню моря атмосферное давление.
Po - Атмосферное давление - измеренное на уровне метеостанции атмосферное давление.
Tmin - Минимальная температура - минимум температуры воздуха на высоте 2 м над землей.
Tmax - Максимальная температура - максимум температуры воздуха на высоте 2 м над землей.
R - Количество осадков - Количество выпавших осадков за период времени, мм. При наведении курсора мыши на число - период времени, за который выпало указанное количество осадков.
R24 - Количество осадков - Количество выпавших осадков за 24 часа, мм.
S - Снежный покров - Высота снежного покрова, см. При наведении курсора мыши на число - состояние снежного покрова и степень покрытия местности в баллах.